TimeCEST,TemperatureF,Dew PointF,Humidity,Sea Level PressureIn,VisibilityMPH,Wind Direction,Wind SpeedMPH,Gust SpeedMPH,PrecipitationIn,Events,Conditions,WindDirDegrees,DateUTC
12:00 AM,53.6,46.4,77,30.09,6.2,West,10.4,-,N/A,,Partly Cloudy,280,2013-06-25 22:00:00
12:30 AM,53.6,46.4,77,30.09,6.2,West,13.8,-,N/A,,Partly Cloudy,280,2013-06-25 22:30:00
1:00 AM,53.6,46.4,77,30.09,-9999.0,WNW,11.5,-,N/A,,Clear,290,2013-06-25 23:00:00
1:30 AM,53.6,46.4,77,30.09,6.2,WNW,11.5,-,N/A,,Partly Cloudy,290,2013-06-25 23:30:00
2:00 AM,54,46,66,30.11,19,West,15.7,,,,Scattered Clouds,280,2013-06-26 00:00:00
2:00 AM,53.6,46.4,77,30.09,6.2,WNW,13.8,-,N/A,,Partly Cloudy,290,2013-06-26 00:00:00
2:30 AM,53.6,46.4,77,30.09,-9999.0,WNW,12.7,-,N/A,,Clear,290,2013-06-26 00:30:00
3:00 AM,53.6,46.4,77,30.09,6.2,WNW,10.4,-,N/A,Rain,Light Rain,290,2013-06-26 01:00:00
3:30 AM,53.6,46.4,77,30.09,6.2,WNW,9.2,-,N/A,Rain,Light Rain,290,2013-06-26 01:30:00
4:00 AM,51.8,46.4,82,30.09,6.2,WNW,10.4,-,N/A,Rain,Light Rain,290,2013-06-26 02:00:00
4:30 AM,51.8,46.4,82,30.09,6.2,West,9.2,-,N/A,Rain,Light Rain,280,2013-06-26 02:30:00
5:00 AM,51.8,46.4,82,30.09,6.2,West,9.2,-,N/A,Rain,Light Rain,280,2013-06-26 03:00:00
5:30 AM,51.8,46.4,82,30.09,6.2,West,8.1,-,N/A,Rain,Light Rain,280,2013-06-26 03:30:00
6:00 AM,51.8,46.4,82,30.09,6.2,West,8.1,-,N/A,Rain,Light Rain,280,2013-06-26 04:00:00
6:30 AM,53.6,48.2,82,30.09,6.2,West,8.1,-,N/A,,Mostly Cloudy,270,2013-06-26 04:30:00
7:00 AM,53.6,46.4,77,30.09,6.2,WNW,12.7,-,N/A,Rain,Light Rain,290,2013-06-26 05:00:00
7:30 AM,53.6,46.4,77,30.09,6.2,WNW,13.8,-,N/A,Rain,Light Rain,290,2013-06-26 05:30:00
8:00 AM,54,47,68,30.13,22,WNW,11.2,,,Rain,Light Rain,290,2013-06-26 06:00:00
8:00 AM,55.4,46.4,72,30.12,6.2,WNW,13.8,-,N/A,,Scattered Clouds,290,2013-06-26 06:00:00
8:30 AM,55.4,48.2,77,30.12,6.2,WNW,12.7,-,N/A,,Mostly Cloudy,290,2013-06-26 06:30:00
9:00 AM,55.4,46.4,72,30.12,6.2,WNW,15.0,-,N/A,,Mostly Cloudy,290,2013-06-26 07:00:00
9:30 AM,55.4,48.2,77,30.12,6.2,West,16.1,-,N/A,Rain,Light Rain,280,2013-06-26 07:30:00
10:00 AM,55.4,48.2,77,30.15,6.2,WNW,15.0,-,N/A,Rain,Light Rain,290,2013-06-26 08:00:00
10:30 AM,55.4,48.2,77,30.15,6.2,WNW,13.8,-,N/A,Rain,Light Rain,290,2013-06-26 08:30:00
11:00 AM,55.4,48.2,77,30.15,6.2,West,16.1,-,N/A,Rain,Light Rain,280,2013-06-26 09:00:00
11:30 AM,55.4,48.2,77,30.15,6.2,West,15.0,-,N/A,Rain,Light Rain,280,2013-06-26 09:30:00
12:00 PM,55.4,48.2,77,30.15,6.2,WNW,15.0,-,N/A,Rain,Light Rain,290,2013-06-26 10:00:00
12:30 PM,55.4,48.2,77,30.18,6.2,WNW,15.0,-,N/A,Rain,Light Rain,290,2013-06-26 10:30:00
1:00 PM,57.2,48.2,72,30.18,6.2,WNW,15.0,-,N/A,Rain,Light Rain,290,2013-06-26 11:00:00
1:30 PM,57.2,48.2,72,30.18,6.2,WNW,18.4,-,N/A,Rain,Light Rain,290,2013-06-26 11:30:00
2:00 PM,56,49,71,30.21,12,WNW,17.9,,,Rain,Light Rain,300,2013-06-26 12:00:00
2:00 PM,55.4,48.2,77,30.18,6.2,WNW,16.1,-,N/A,Rain,Light Rain,290,2013-06-26 12:00:00
2:30 PM,57.2,48.2,72,30.21,6.2,WNW,16.1,-,N/A,Rain,Light Rain,290,2013-06-26 12:30:00
3:00 PM,57.2,50.0,77,30.21,6.2,WNW,16.1,-,N/A,Rain,Light Rain,290,2013-06-26 13:00:00
3:30 PM,57.2,48.2,72,30.21,6.2,WNW,13.8,-,N/A,Rain,Light Rain,290,2013-06-26 13:30:00
4:00 PM,57.2,46.4,67,30.21,6.2,NW,12.7,-,N/A,Rain,Light Rain,310,2013-06-26 14:00:00
4:30 PM,57.2,46.4,67,30.21,6.2,NW,13.8,-,N/A,Rain,Light Rain,310,2013-06-26 14:30:00
5:00 PM,55.4,48.2,77,30.21,6.2,NW,12.7,-,N/A,Rain,Light Rain,310,2013-06-26 15:00:00
5:30 PM,55.4,48.2,77,30.21,6.2,WNW,11.5,-,N/A,Rain,Light Rain,290,2013-06-26 15:30:00
6:00 PM,55.4,48.2,77,30.21,6.2,WNW,15.0,-,N/A,Rain,Light Rain,300,2013-06-26 16:00:00
6:30 PM,55.4,48.2,77,30.24,6.2,WNW,10.4,-,N/A,Rain,Light Rain,300,2013-06-26 16:30:00
7:00 PM,55.4,46.4,72,30.24,6.2,NW,11.5,-,N/A,Rain,Light Rain,310,2013-06-26 17:00:00
7:30 PM,55.4,46.4,72,30.24,6.2,WNW,12.7,-,N/A,Rain,Light Rain,300,2013-06-26 17:30:00
8:00 PM,54,45,62,30.25,12,WNW,11.2,,,Rain,Light Rain,300,2013-06-26 18:00:00
8:00 PM,55.4,46.4,72,30.24,6.2,NW,12.7,-,N/A,Rain,Light Rain,310,2013-06-26 18:00:00
8:30 PM,53.6,44.6,72,30.24,6.2,WNW,8.1,-,N/A,,Scattered Clouds,300,2013-06-26 18:30:00
9:00 PM,53.6,44.6,72,30.24,6.2,WNW,8.1,-,N/A,,Scattered Clouds,290,2013-06-26 19:00:00
9:30 PM,51.8,44.6,76,30.24,6.2,WNW,9.2,-,N/A,,Scattered Clouds,290,2013-06-26 19:30:00
10:00 PM,51.8,44.6,76,30.27,6.2,West,6.9,-,N/A,,Scattered Clouds,270,2013-06-26 20:00:00
10:30 PM,51.8,42.8,71,30.27,-9999.0,WNW,6.9,-,N/A,,Clear,300,2013-06-26 20:30:00
11:00 PM,51.8,42.8,71,30.27,-9999.0,NW,3.5,-,N/A,,Clear,320,2013-06-26 21:00:00
11:30 PM,51.8,42.8,71,30.27,-9999.0,NNW,4.6,-,N/A,,Clear,340,2013-06-26 21:30:00